Regional Weather Roundup
Issued by NWS

Home | Current Version | Previous Version | Text Only | Print | Product List | Glossary Off
Versions: 1 2 3 4 5 6 7 8 9 10 11 12 13 14 15 16 17 18 19 20 21 22 23 24 25 26 27 28 29 30 31 32 33 34 35 36 37 38 39 40 41 42 43 44 45 46 47 48 49 50

000
ASUS43 KLSX 251659
RWRMO

WEATHER SUMMARY FOR MISSOURI
NATIONAL WEATHER SERVICE SPRINGFIELD MO
1200 PM CDT SAT OCT 25 2014

NOTE: "FAIR" INDICATES FEW OR NO CLOUDS BELOW 12,000 FEET WITH NO
       SIGNIFICANT WEATHER AND/OR OBSTRUCTIONS TO VISIBILITY.
       CURRENT SKY AND/OR WEATHER CONDITIONS ARE NOT AVAILABLE FOR
       CHILLICOTHE AND FARMINGTON.

MOZ001>031-035>038-043-044-053-054-251800-
...NORTHERN AND WESTERN MISSOURI...

CITY           SKY/WX    TMP DP  RH WIND       PRES   REMARKS
KANSAS CTY INT MOSUNNY   72  58  61 E6        30.09F
KANSAS C DTWN  SUNNY     72  61  68 E7        30.08F
LEE`S SUMMIT   SUNNY     73  63  70 E6        30.09F
ST JOSEPH      SUNNY     72  55  55 NE5       30.09S
CHILLICOTHE      N/A     72  55  55 CALM      30.09F
KIRKSVILLE     SUNNY     72  52  49 N6        30.09S

$$
MOZ066>068-077>081-088>096-101>105-251800-
...SOUTHWEST MISSOURI...

CITY           SKY/WX    TMP DP  RH WIND       PRES   REMARKS
SPRINGFIELD    SUNNY     75  62  64 W7        30.08F
JOPLIN         SUNNY     75  63  66 W7        30.09F

$$
MOZ032>034-039>042-045>050-055>058-069>072-251800-
...CENTRAL MISSOURI...

CITY           SKY/WX    TMP DP  RH WIND       PRES   REMARKS
COLUMBIA       SUNNY     71  63  75 CALM      30.08S
JEFFERSON CITY SUNNY     72  62  71 SW3       30.07S
ROLLA          SUNNY     71  62  73 W3        30.06F
SEDALIA        SUNNY     70  63  78 VRB3      30.10S
OSAGE BEACH    SUNNY     73  61  64 SW5       30.08S

$$
MOZ051-052-059>065-251800-
...EAST CENTRAL MISSOURI...

CITY           SKY/WX    TMP DP  RH WIND       PRES   REMARKS
ST LOUIS INTL  SUNNY     75  62  64 NW5       30.05S
SPIRIT OF STL  SUNNY     74  63  68 VRB5      30.04S
ST CHARLES     SUNNY     73  62  68 W5        30.04S HAZE

$$
MOZ072>076-082>087-097>100-106>115-251800-
...SOUTH CENTRAL AND SOUTHEAST MISSOURI...

CITY           SKY/WX    TMP DP  RH WIND       PRES   REMARKS
CAPE GIRARDEAU SUNNY     74  62  66 NW5       30.04F
FARMINGTON     SUNNY     73  63  68 CALM      30.08S
POPLAR BLUFF   SUNNY     75  60  59 VRB3      30.04F
WEST PLAINS    SUNNY     74  61  63 CALM      30.09F

$$



USA.gov is the U.S. government's official web portal to all federal, state and local government web resources and services.